Regional Weather Roundup
Issued by NWS

Home | Current Version | Previous Version | Text Only | Print | Product List | Glossary On
Versions: 1 2 3 4 5 6 7 8 9 10 11 12 13 14 15 16 17 18 19 20 21 22 23 24 25 26 27 28 29 30 31 32 33 34 35 36 37 38 39 40 41 42 43 44 45 46 47 48 49 50
000
ASUS46 KSTO 191615
RWRCA

NORTHERN AND CENTRAL CA REGIONAL WEATHER ROUNDUP
NATIONAL WEATHER SERVICE SACRAMENTO CA
800 AM PST MON FEB 19 2018

NOTE: FAIR INDICATES FEW OR NO CLOUDS BELOW 12,000 FEET WITH NO
SIGNIFICANT WEATHER AND/OR OBSTRUCTIONS TO VISIBILITY.

CAZ001-003-191700-
NORTHWEST AREA

CITY           SKY/WX    TMP DP  RH WIND       PRES   REMARKS
CRESCENT CITY  CLOUDY    36  33  89 NE3       30.10R
UKIAH          SUNNY     37  27  67 N8        30.03R WCI  31
$$

CAZ006-505>513-191700-
BAY AREA

CITY           SKY/WX    TMP DP  RH WIND       PRES   REMARKS
SANTA ROSA     SUNNY     37  30  75 N3        30.01R
SAN RAFAEL     N/A       40  MM  MM MISG
NAPA           SUNNY     35  30  82 N5        30.01R WCI  31
CONCORD        SUNNY     42  31  64 NW12      30.01R
OAKLAND CITY   N/A      MM  MM  MM MISG
OAKLAND        MOSUNNY   42  31  64 NW14G22   30.01R
SAN FRAN CITY  N/A       42  MM  53 MISG
SAN FRAN ARPT  MOSUNNY   44  29  55 NW18G26   30.00R
LIVERMORE      MOSUNNY   40  31  70 CALM      29.99R
HAYWARD        SUNNY     43  28  55 NW13      29.99R
REDWOOD CITY   N/A       43  MM  60 MISG
MOFFETT ARPT   SUNNY     43  31  62 W9G18     30.01R
SAN JOSE ARPT  PTSUNNY   44  32  62 W12G21    30.00R
$$
CAZ034-037-514>518-191700-
CENTRAL COAST

CITY           SKY/WX    TMP DP  RH WIND       PRES   REMARKS
WATSONVILLE    MOSUNNY   37  30  75 CALM      30.01R
SALINAS        CLOUDY    44  34  67 W8        30.00R
MONTEREY       PTSUNNY   43  36  76 W9        30.02R
SAN LUIS OBISP PTSUNNY   40  32  73 SE3       30.01R
SANTA MARIA    CLOUDY    41  35  79 CALM      30.01R
$$
CAZ015-016-191700-
NORTHERN SACRAMENTO VALLEY

CITY           SKY/WX    TMP DP  RH WIND       PRES   REMARKS
REDDING        MOSUNNY   29  23  78 CALM      29.99R
RED BLUFF      SUNNY     31  23  72 N6        29.99R WCI  25
OROVILLE       SUNNY     35  28  75 CALM      30.00R
$$
CAZ016>018-191700-
SOUTHERN SACRAMENTO VALLEY

CITY           SKY/WX    TMP DP  RH WIND       PRES   REMARKS
AUBURN         SUNNY     32  27  80 E7        29.92R WCI  26
BEALE AFB      SUNNY     32  26  78 CALM      29.98R
LINCOLN        FAIR      32  28  86 E5        29.98R WCI  27
MARYSVILLE     SUNNY     32  27  81 CALM      30.00R
SAC INTL ARPT  SUNNY     34  29  82 CALM      29.98R
MATHER AIRPORT SUNNY     32  28  86 CALM      29.98R
DOWNTOWN SAC   N/A       36  MM  MM MISG
SAC EXEC ARPT  SUNNY     35  29  78 CALM      29.99R
VACAVILLE      SUNNY     38  28  67 E3        30.00R
TRAVIS AFB     SUNNY     35  29  80 CALM      29.98R
$$
CAZ019>021-191700-
SAN JOAQUIN VALLEY

CITY           SKY/WX    TMP DP  RH WIND       PRES   REMARKS
STOCKTON       SUNNY     39  31  72 E3        29.99R
MODESTO        SUNNY     38  29  70 VRB3      29.98R
MERCED         MOSUNNY   33  27  78 CALM      29.97R
LEMOORE        MOSUNNY   39  28  64 S5        29.99R
FRESNO         PTSUNNY   41  29  62 W5        29.97R
HANFORD        SUNNY     42  32  67 NW3       29.99R
PORTERVILLE    SUNNY     37  30  75 S3        29.99R
BAKERSFIELD    SUNNY     41  31  67 CALM      29.98R
$$
CAZ011-012-071-191700-
NORTHERN MOUNTAINS

CITY           SKY/WX    TMP DP  RH WIND       PRES   REMARKS
YREKA          PTCLDY    17  14  88 NE6       29.95R WCI   9
MOUNT SHASTA   PTSUNNY   26  17  68 N7G18     29.86R WCI  18
ALTURAS        LGT SNOW  20  16  84 W3        29.80R FOG
$$
CAZ011-012-071-191700-
SIERRA NEVADA MTNS

CITY           SKY/WX    TMP DP  RH WIND       PRES   REMARKS
BLUE CANYON    CLOUDY    18  14  84 CALM      29.77R
TRUCKEE        CLOUDY    10   9  92 CALM      29.73R
TAHOE VLY ARPT PTSUNNY   14   5  67 CALM      29.69R
MAMMOTH LAKES  FAIR      16   1  53 W10       29.61S WCI   3
$$




USA.gov is the U.S. government's official web portal to all federal, state and local government web resources and services.